KC5EZZ-2 Weather Reports


time (UTC)temp
C
wind
direction
speed
KPH
gust
KPH
rain 1hr
cm
rain 24hr
cm
rain mn
cm
humidity
%
barometer
mb
20260507094343 13 357 16.1 17.7 0.00 0.00 0.00
20260507093843 13 1 14.5 14.5 0.00 0.00 0.00
20260507093340 13 3 16.1 14.5 0.00 0.00 0.00
20260507092841 13 21 14.5 16.1 0.00 0.00 0.00
20260507092341 13 31 14.5 12.9 0.00 0.00 0.00
20260507091839 13 21 14.5 17.7 0.00 0.00 0.00
20260507091339 13 7 19.3 20.9 0.00 0.00 0.00
20260507090839 13 14 14.5 16.1 0.00 0.00 0.00
20260507090337 13 30 16.1 14.5 0.00 0.00 0.00
20260507085837 13 352 16.1 14.5 0.00 0.00 0.00
20260507085338 13 25 14.5 19.3 0.00 0.00 0.00
20260507084835 13 6 16.1 14.5 0.00 0.00 0.00
20260507084335 13 6 14.5 14.5 0.00 0.00 0.00
20260507083835 13 3 16.1 16.1 0.00 0.00 0.00
20260507083333 13 3 17.7 19.3 0.00 0.00 0.00
20260507082833 13 11 12.9 12.9 0.00 0.00 0.00
20260507082334 13 8 12.9 9.7 0.00 0.00 0.00
20260507081831 13 14 11.3 11.3 0.00 0.00 0.00
20260507081332 13 18 11.3 12.9 0.00 0.00 0.00
20260507080832 13 8 11.3 11.3 0.00 0.00 0.00
20260507080330 13 21 11.3 12.9 0.00 0.00 0.00
20260507075830 13 28 11.3 11.3 0.00 0.00 0.00
20260507075330 13 28 12.9 12.9 0.00 0.00 0.00
20260507074828 13 8 11.3 9.7 0.00 0.00 0.00
20260507074328 13 6 12.9 12.9 0.00 0.00 0.00
20260507073829 13 10 12.9 9.7 0.00 0.00 0.00
20260507073326 13 1 14.5 17.7 0.00 0.00 0.00
20260507072827 13 7 16.1 12.9 0.00 0.00 0.00
20260507072327 13 15 14.5 12.9 0.00 0.00 0.00
20260507071825 13 347 14.5 16.1 0.00 0.00 0.00
20260507071325 13 4 16.1 17.7 0.00 0.00 0.00
20260507070826 14 8 14.5 17.7 0.00 0.00 0.00
20260507070323 13 13 14.5 16.1 0.00 0.00 0.00
20260507065824 13 13 12.9 9.7 0.00 0.00 0.00
20260507065324 13 34 12.9 14.5 0.00 0.00 0.00
20260507064822 14 25 12.9 14.5 0.00 0.00 0.00
20260507064322 13 4 12.9 14.5 0.00 0.00 0.00
20260507063823 14 13 12.9 14.5 0.00 0.00 0.00
20260507063320 14 18 9.7 12.9 0.00 0.00 0.00
20260507062821 14 25 11.3 12.9 0.00 0.00 0.00
20260507062321 14 10 14.5 9.7 0.00 0.00 0.00
20260507061819 14 13 14.5 14.5 0.00 0.00 0.00
20260507061320 14 15 11.3 12.9 0.00 0.00 0.00
20260507060820 14 24 12.9 14.5 0.00 0.00 0.00
20260507060721 14 17 12.9 8.0 0.00 0.00 0.00
20260507060318 14 17 12.9 8.0 0.00 0.00 0.00
20260507055818 14 37 12.9 12.9 0.00 0.00 0.00
20260507055319 14 41 12.9 11.3 0.00 0.00 0.00
20260507054817 15 31 14.5 11.3 0.00 0.00 0.00
20260507054317 15 30 9.7 8.0 0.00 0.00 0.00
20260507053818 15 38 11.3 14.5 0.00 0.00 0.00
20260507053315 15 59 14.5 12.9 0.00 0.00 0.00
20260507052816 15 30 14.5 16.1 0.00 0.00 0.00
20260507052316 15 11 12.9 16.1 0.00 0.00 0.00
20260507051814 15 31 12.9 14.5 0.00 0.00 0.00
20260507051314 15 30 11.3 12.9 0.00 0.00 0.00
20260507050815 15 44 12.9 14.5 0.00 0.00 0.00
20260507050313 15 27 12.9 9.7 0.00 0.00 0.00
20260507045813 15 49 14.5 11.3 0.00 0.00 0.00
20260507045313 15 37 14.5 16.1 0.00 0.00 0.00
20260507044811 15 31 11.3 14.5 0.00 0.00 0.00
20260507044312 16 48 11.3 14.5 0.00 0.00 0.00
20260507043812 16 65 16.1 12.9 0.00 0.00 0.00
20260507043310 16 65 17.7 17.7 0.00 0.00 0.00
20260507042810 16 21 14.5 17.7 0.00 0.00 0.00
20260507042311 16 14 16.1 16.1 0.00 0.00 0.00
20260507041808 16 44 12.9 14.5 0.00 0.00 0.00
20260507041309 16 28 11.3 11.3 0.00 0.00 0.00
20260507040809 16 45 11.3 11.3 0.00 0.00 0.00
20260507040307 16 52 8.0 8.0 0.00 0.00 0.00
20260507035807 16 42 8.0 9.7 0.00 0.00 0.00
20260507035308 17 42 9.7 11.3 0.00 0.00 0.00
20260507034806 17 52 11.3 11.3 0.00 0.00 0.00
20260507034306 17 44 12.9 16.1 0.00 0.00 0.00
20260507033304 17 89 9.7 12.9 0.00 0.00 0.00
20260507032804 17 70 11.3 11.3 0.00 0.00 0.00
20260507032306 17 62 8.0 8.0 0.00 0.00 0.00
20260507031803 17 49 4.8 9.7 0.00 0.00 0.00
20260507031303 17 53 9.7 6.4 0.00 0.00 0.00
20260507030804 17 35 11.3 11.3 0.00 0.00 0.00
20260507030301 17 66 11.3 11.3 0.00 0.00 0.00
20260507025802 18 75 11.3 12.9 0.00 0.00 0.00
20260507025306 17 42 12.9 11.3 0.00 0.00 0.00
20260507024800 18 31 6.4 4.8 0.00 0.00 0.00
20260507024301 18 72 6.4 6.4 0.00 0.00 0.00
20260507023801 18 45 8.0 9.7 0.00 0.00 0.00
20260507023259 18 56 11.3 9.7 0.00 0.00 0.00
20260507022759 18 56 11.3 9.7 0.00 0.00 0.00
20260507022300 18 39 11.3 11.3 0.00 0.00 0.00
20260507021757 19 42 8.0 8.0 0.00 0.00 0.00
20260507021258 19 69 12.9 8.0 0.00 0.00 0.00
20260507020758 19 68 16.1 12.9 0.00 0.00 0.00
20260507020256 19 69 9.7 8.0 0.00 0.00 0.00
20260507015757 19 51 12.9 9.7 0.00 0.00 0.00
20260507015257 19 48 8.0 12.9 0.00 0.00 0.00
20260507014755 19 58 8.0 6.4 0.00 0.00 0.00
20260507014255 20 27 6.4 8.0 0.00 0.00 0.00
20260507013756 20 51 6.4 6.4 0.00 0.00 0.00
20260507013253 20 49 12.9 12.9 0.00 0.00 0.00
20260507012753 20 51 12.9 12.9 0.00 0.00 0.00
20260507012253 20 44 11.3 14.5 0.00 0.00 0.00
20260507011750 20 73 12.9 16.1 0.00 0.00 0.00
20260507011251 20 31 11.3 9.7 0.00 0.00 0.00
20260507010751 20 46 9.7 9.7 0.00 0.00 0.00
20260507010249 20 17 16.1 14.5 0.00 0.00 0.00
20260507005749 20 44 11.3 14.5 0.00 0.00 0.00
20260507005249 21 46 9.7 8.0 0.00 0.00 0.00
20260507004746 21 38 14.5 17.7 0.00 0.00 0.00
20260507003746 21 89 12.9 12.9 0.00 0.00 0.00
20260507003244 21 45 16.1 14.5 0.00 0.00 0.00
20260507002744 21 44 14.5 12.9 0.00 0.00 0.00
20260507002244 21 52 17.7 17.7 0.00 0.00 0.00
20260507001243 21 38 17.7 17.7 0.00 0.00 0.00
20260507000743 21 42 16.1 12.9 0.00 0.00 0.00
20260506235741 21 65 12.9 16.1 0.00 0.00 0.00
20260506234738 21 80 12.9 12.9 0.00 0.00 0.00
20260506234239 21 63 14.5 8.0 0.00 0.00 0.00
20260506233739 21 53 12.9 12.9 0.00 0.00 0.00
20260506233237 21 53 11.3 11.3 0.00 0.00 0.00
20260506232737 21 27 12.9 11.3 0.00 0.00 0.00
20260506232238 21 60 9.7 9.7 0.00 0.00 0.00
20260506231735 21 62 12.9 9.7 0.00 0.00 0.00
20260506231236 21 51 14.5 16.1 0.00 0.00 0.00
20260506230736 22 60 12.9 9.7 0.00 0.00 0.00
20260506230234 22 27 8.0 11.3 0.00 0.00 0.00
20260506225734 22 65 11.3 11.3 0.00 0.00 0.00
20260506225235 22 108 12.9 9.7 0.00 0.00 0.00
20260506224732 22 101 9.7 9.7 0.00 0.00 0.00
20260506224233 22 42 9.7 19.3 0.00 0.00 0.00
20260506223733 22 94 11.3 11.3 0.00 0.00 0.00
20260506222731 22 89 9.7 9.7 0.00 0.00 0.00
20260506222232 22 56 9.7 8.0 0.00 0.00 0.00
20260506221729 22 15 11.3 11.3 0.00 0.00 0.00
20260506221230 22 41 8.0 9.7 0.00 0.00 0.00
20260506220730 22 82 8.0 8.0 0.00 0.00 0.00
20260506220228 22 100 4.8 6.4 0.00 0.00 0.00
20260506215728 22 39 4.8 1.6 0.00 0.00 0.00
20260506215229 21 8 4.8 1.6 0.00 0.00 0.00
20260506214726 21 42 4.8 0.0 0.00 0.00 0.00
20260506214227 22 35 0.0 9.7 0.00 0.00 0.00
20260506213727 22 60 14.5 9.7 0.00 0.00 0.00
20260506213225 22 104 6.4 6.4 0.00 0.00 0.00
20260506212725 21 28 8.0 0.0 0.00 0.00 0.00
20260506212226 21 32 12.9 12.9 0.00 0.00 0.00
20260506211723 21 39 8.0 8.0 0.00 0.00 0.00
20260506211224 21 11 8.0 14.5 0.00 0.00 0.00
20260506210724 20 42 8.0 4.8 0.00 0.00 0.00
20260506210222 21 59 6.4 3.2 0.00 0.00 0.00
20260506205722 21 55 8.0 11.3 0.00 0.00 0.00
20260506205223 21 28 9.7 8.0 0.00 0.00 0.00
20260506204720 21 65 9.7 4.8 0.00 0.00 0.00
20260506204221 20 72 12.9 12.9 0.00 0.00 0.00
20260506203721 20 58 6.4 8.0 0.00 0.00 0.00
20260506202719 21 39 8.0 14.5 0.00 0.00 0.00
20260506202220 20 82 11.3 8.0 0.00 0.00 0.00
20260506201718 20 44 9.7 11.3 0.00 0.00 0.00
20260506201218 20 87 9.7 4.8 0.00 0.00 0.00
20260506200719 20 37 14.5 9.7 0.00 0.00 0.00
20260506200216 20 63 11.3 12.9 0.00 0.00 0.00
20260506195717 20 39 11.3 9.7 0.00 0.00 0.00
20260506195217 19 330 11.3 8.0 0.00 0.00 0.00
20260506194715 19 60 16.1 11.3 0.00 0.00 0.00
20260506194215 19 14 14.5 9.7 0.00 0.00 0.00
20260506193716 19 17 14.5 9.7 0.00 0.00 0.00
20260506193214 19 10 9.7 0.0 0.00 0.00 0.00
20260506192714 18 72 12.9 16.1 0.00 0.00 0.00
20260506192214 17 70 9.7 6.4 0.00 0.00 0.00
20260506191711 17 18 14.5 16.1 0.00 0.00 0.00
20260506191212 17 68 11.3 11.3 0.00 0.00 0.00
20260506190712 17 80 11.3 8.0 0.00 0.00 0.00
20260506190210 17 30 11.3 8.0 0.00 0.00 0.00
20260506185709 17 72 11.3 12.9 0.00 0.00 0.00
20260506184707 17 94 8.0 9.7 0.00 0.00 0.00
20260506184208 16 60 14.5 14.5 0.00 0.00 0.00
20260506183708 16 65 14.5 11.3 0.00 0.00 0.00
20260506183206 17 66 11.3 11.3 0.00 0.00 0.00
20260506182706 17 3 14.5 14.5 0.00 0.00 0.00
20260506182207 17 62 14.5 11.3 0.00 0.00 0.00
20260506181704 17 77 9.7 11.3 0.00 0.00 0.00
20260506181205 17 23 9.7 12.9 0.00 0.00 0.00
20260506180705 17 28 8.0 4.8 0.00 0.00 0.00
20260506180203 17 86 9.7 8.0 0.00 0.00 0.00
20260506175703 17 30 12.9 11.3 0.00 0.00 0.00
20260506175204 17 39 11.3 11.3 0.00 0.00 0.00
20260506174701 16 51 9.7 8.0 0.00 0.00 0.00
20260506174202 17 4 12.9 11.3 0.00 0.00 0.00
20260506174022 17 30 11.3 11.3 0.00 0.00 0.00
20260506173702 17 30 11.3 11.3 0.00 0.00 0.00
20260506173200 17 13 6.4 14.5 0.00 0.00 0.00
20260506172700 17 10 11.3 8.0 0.00 0.00 0.00
20260506172201 17 24 8.0 9.7 0.00 0.00 0.00
20260506171659 16 24 11.3 11.3 0.00 0.00 0.00
20260506171159 16 34 4.8 3.2 0.00 0.00 0.00
20260506170700 17 339 12.9 14.5 0.00 0.00 0.00
20260506170157 17 329 14.5 11.3 0.00 0.00 0.00
20260506165658 16 352 14.5 16.1 0.00 0.00 0.00
20260506165158 16 338 16.1 14.5 0.00 0.00 0.00
20260506164743 16 353 6.4 8.0 0.00 0.00 0.00
20260506164656 16 353 6.4 8.0 0.00 0.00 0.00
20260506164156 16 32 16.1 12.9 0.00 0.00 0.00
20260506163656 16 359 9.7 9.7 0.00 0.00 0.00
20260506163155 16 359 11.3 8.0 0.00 0.00 0.00
20260506162654 16 343 12.9 9.7 0.00 0.00 0.00
20260506162155 16 338 12.9 14.5 0.00 0.00 0.00
20260506161653 15 11 14.5 11.3 0.00 0.00 0.00
20260506161153 15 346 11.3 8.0 0.00 0.00 0.00
20260506160654 15 4 11.3 11.3 0.00 0.00 0.00
20260506160151 15 3 12.9 16.1 0.00 0.00 0.00
20260506155652 14 14 12.9 12.9 0.00 0.00 0.00
20260506155152 14 4 9.7 14.5 0.00 0.00 0.00
20260506154806 13 353 9.7 4.8 0.00 0.00 0.00
20260506154650 13 353 9.7 4.8 0.00 0.00 0.00
20260506154150 13 350 9.7 9.7 0.00 0.00 0.00
20260506153650 13 39 11.3 11.3 0.00 0.00 0.00
20260506153148 13 39 9.7 12.9 0.00 0.00 0.00
20260506152648 13 24 11.3 11.3 0.00 0.00 0.00
20260506152149 13 20 14.5 11.3 0.00 0.00 0.00
20260506151646 13 333 14.5 14.5 0.00 0.00 0.00
20260506151147 13 359 16.1 12.9 0.00 0.00 0.00
20260506150647 13 328 16.1 14.5 0.00 0.00 0.00
20260506150145 13 329 14.5 16.1 0.00 0.00 0.00
20260506145645 13 323 16.1 14.5 0.00 0.00 0.00
20260506145146 13 326 14.5 14.5 0.00 0.00 0.00
20260506144144 13 330 12.9 11.3 0.00 0.00 0.00
20260506143645 12 328 14.5 9.7 0.00 0.00 0.00
20260506143403 12 335 17.7 14.5 0.00 0.00 0.00
20260506143142 12 335 17.7 14.5 0.00 0.00 0.00
20260506142643 12 322 14.5 16.1 0.00 0.00 0.00
20260506142143 12 316 17.7 12.9 0.00 0.00 0.00
20260506141641 12 314 11.3 11.3 0.00 0.00 0.00
20260506141141 12 345 16.1 14.5 0.00 0.00 0.00
20260506140642 12 25 14.5 11.3 0.00 0.00 0.00
20260506140139 12 3 16.1 19.3 0.00 0.00 0.00
20260506135640 11 350 16.1 19.3 0.00 0.00 0.00
20260506135140 11 359 14.5 14.5 0.00 0.00 0.00
20260506134638 11 345 16.1 17.7 0.00 0.00 0.00
20260506134138 11 353 14.5 16.1 0.00 0.00 0.00
20260506133639 11 354 16.1 16.1 0.00 0.00 0.00
20260506133136 11 1 17.7 20.9 0.00 0.00 0.00
20260506132638 11 349 14.5 14.5 0.00 0.00 0.00
20260506132137 11 10 16.1 12.9 0.00 0.00 0.00
20260506131635 11 359 12.9 12.9 0.00 0.00 0.00
20260506131135 11 18 14.5 14.5 0.00 0.00 0.00
20260506130636 11 38 19.3 19.3 0.00 0.00 0.00
20260506130133 11 18 20.9 17.7 0.00 0.00 0.00
20260506125634 11 336 19.3 17.7 0.00 0.00 0.00
20260506125135 11 6 16.1 17.7 0.00 0.00 0.00
20260506124632 12 39 14.5 12.9 0.00 0.00 0.00
20260506124133 11 10 9.7 9.7 0.00 0.00 0.00
20260506123633 11 35 11.3 12.9 0.00 0.00 0.00
20260506123131 11 30 12.9 9.7 0.00 0.00 0.00
20260506122631 12 14 12.9 11.3 0.00 0.00 0.00
20260506122132 12 325 16.1 14.5 0.00 0.00 0.00
20260506121630 12 41 12.9 12.9 0.00 0.00 0.00
20260506121130 12 27 11.3 14.5 0.00 0.00 0.00
20260506120631 12 4 14.5 9.7 0.00 0.00 0.00
20260506120128 12 18 19.3 17.7 0.00 0.00 0.00
20260506115629 12 0 17.7 14.5 0.00 0.00 0.00
20260506115129 12 335 14.5 14.5 0.00 0.00 0.00
20260506114627 13 100 4.8 9.7 0.00 0.00 0.00
20260506114128 13 20 9.7 8.0 0.00 0.00 0.00
20260506113706 13 14 14.5 12.9 0.00 0.00 0.00
20260506113628 13 14 14.5 12.9 0.00 0.00 0.00
20260506113538 13 28 14.5 12.9 0.00 0.00 0.00
20260506113126 13 28 14.5 12.9 0.00 0.00 0.00
20260506112626 13 39 16.1 14.5 0.00 0.00 0.00
20260506112126 13 4 17.7 12.9 0.00 0.00 0.00
20260506111623 13 347 16.1 19.3 0.00 0.00 0.00
20260506111124 13 342 20.9 14.5 0.00 0.00 0.00
20260506110624 13 340 12.9 12.9 0.00 0.00 0.00
20260506110122 13 345 12.9 12.9 0.00 0.00 0.00
20260506105623 14 27 11.3 11.3 0.00 0.00 0.00
20260506105123 13 21 12.9 11.3 0.00 0.00 0.00
20260506104621 13 10 11.3 12.9 0.00 0.00 0.00
20260506104121 14 359 9.7 11.3 0.00 0.00 0.00
20260506103622 14 20 12.9 11.3 0.00 0.00 0.00
20260506103120 14 23 9.7 11.3 0.00 0.00 0.00
20260506102620 14 1 12.9 14.5 0.00 0.00 0.00
20260506102121 14 11 11.3 12.9 0.00 0.00 0.00
20260506101618 14 28 12.9 11.3 0.00 0.00 0.00
20260506101119 15 350 11.3 9.7 0.00 0.00 0.00
20260506100619 15 17 11.3 9.7 0.00 0.00 0.00
20260506100117 14 352 12.9 14.5 0.00 0.00 0.00
20260506095617 14 356 12.9 11.3 0.00 0.00 0.00
20260506095118 15 352 11.3 8.0 0.00 0.00 0.00